Time,TemperatureF,DewpointF,PressureIn,WindDirection,WindDirectionDegrees,WindSpeedMPH,WindSpeedGustMPH,Humidity,HourlyPrecipIn,Conditions,Clouds,dailyrainin,SoftwareType,DateUTC
2013-03-30 00:00:00,59.3,52.5,30.06,SSW,193,4.0,14.0,78,0.00,,---,0.00,VWS V14.01,2013-03-30 05:00:00,
2013-03-30 00:05:00,59.3,52.5,30.06,SSE,151,4.0,9.0,78,0.00,,---,0.00,VWS V14.01,2013-03-30 05:05:00,
2013-03-30 00:10:00,59.2,52.3,30.06,South,169,8.0,11.0,78,0.00,,---,0.00,VWS V14.01,2013-03-30 05:10:00,
2013-03-30 00:15:00,59.2,52.3,30.06,SE,136,3.0,11.0,78,0.00,,---,0.00,VWS V14.01,2013-03-30 05:15:00,
2013-03-30 00:20:00,59.2,52.3,30.06,SSE,158,2.0,10.0,78,0.00,,---,0.00,VWS V14.01,2013-03-30 05:20:00,
2013-03-30 00:25:00,59.1,52.3,30.06,South,172,3.0,10.0,78,0.00,,---,0.00,VWS V14.01,2013-03-30 05:25:00,
2013-03-30 00:30:00,59.0,52.5,30.06,SSE,163,3.0,14.0,79,0.00,,---,0.00,VWS V14.01,2013-03-30 05:30:00,
2013-03-30 00:35:00,58.9,52.4,30.06,South,186,3.0,10.0,79,0.00,,---,0.00,VWS V14.01,2013-03-30 05:35:00,
2013-03-30 00:40:00,58.9,52.4,30.06,SSE,167,4.0,10.0,79,0.00,,---,0.00,VWS V14.01,2013-03-30 05:40:00,
2013-03-30 00:45:00,58.8,52.3,30.06,SE,145,8.0,10.0,79,0.00,,---,0.00,VWS V14.01,2013-03-30 05:45:00,
2013-03-30 00:50:00,58.7,52.2,30.06,SSW,194,1.0,11.0,79,0.00,,---,0.00,VWS V14.01,2013-03-30 05:50:00,
2013-03-30 00:55:00,58.7,52.2,30.06,SE,134,4.0,11.0,79,0.00,,---,0.00,VWS V14.01,2013-03-30 05:55:00,
2013-03-30 01:00:00,58.6,52.1,30.06,South,170,5.0,11.0,79,0.00,,---,0.00,VWS V14.01,2013-03-30 06:00:00,
2013-03-30 01:05:00,58.5,52.0,30.06,SSE,167,1.0,9.0,79,0.00,,---,0.00,VWS V14.01,2013-03-30 06:05:00,
2013-03-30 01:10:00,58.4,52.3,30.06,SSE,148,2.0,10.0,80,0.00,,---,0.00,VWS V14.01,2013-03-30 06:10:00,
2013-03-30 01:15:00,58.3,52.2,30.06,SSW,211,2.0,10.0,80,0.00,,---,0.00,VWS V14.01,2013-03-30 06:15:00,
2013-03-30 01:20:00,58.2,52.1,30.06,SSE,153,1.0,3.0,80,0.00,,---,0.00,VWS V14.01,2013-03-30 06:20:00,
2013-03-30 01:25:00,58.1,52.0,30.06,South,170,0.0,3.0,80,0.00,,---,0.00,VWS V14.01,2013-03-30 06:25:00,
2013-03-30 01:30:00,58.0,51.9,30.05,SSE,159,0.0,3.0,80,0.00,,---,0.00,VWS V14.01,2013-03-30 06:30:00,
2013-03-30 01:35:00,57.9,52.1,30.04,SE,142,2.0,5.0,81,0.00,,---,0.00,VWS V14.01,2013-03-30 06:35:00,
2013-03-30 01:40:00,57.8,52.0,30.04,ESE,115,2.0,5.0,81,0.00,,---,0.00,VWS V14.01,2013-03-30 06:40:00,
2013-03-30 01:45:00,57.6,51.8,30.05,South,188,2.0,5.0,81,0.00,,---,0.00,VWS V14.01,2013-03-30 06:45:00,
2013-03-30 01:50:00,57.5,51.7,30.05,SE,145,3.0,4.0,81,0.00,,---,0.00,VWS V14.01,2013-03-30 06:50:00,
2013-03-30 01:55:00,57.5,51.7,30.04,SSW,195,2.0,6.0,81,0.00,,---,0.00,VWS V14.01,2013-03-30 06:55:00,
2013-03-30 02:00:00,57.3,51.9,30.05,SSW,200,0.0,6.0,82,0.00,,---,0.00,VWS V14.01,2013-03-30 07:00:00,
2013-03-30 02:05:00,57.3,51.9,30.05,SE,143,0.0,5.0,82,0.00,,---,0.00,VWS V14.01,2013-03-30 07:05:00,
2013-03-30 02:10:00,57.2,51.8,30.05,ESE,110,2.0,6.0,82,0.00,,---,0.00,VWS V14.01,2013-03-30 07:10:00,
2013-03-30 02:15:00,57.2,51.8,30.03,SE,129,1.0,6.0,82,0.00,,---,0.00,VWS V14.01,2013-03-30 07:15:00,
2013-03-30 02:20:00,57.0,51.6,30.03,ESE,120,4.0,8.0,82,0.00,,---,0.00,VWS V14.01,2013-03-30 07:20:00,
2013-03-30 02:25:00,56.9,51.5,30.02,SSE,164,2.0,8.0,82,0.00,,---,0.00,VWS V14.01,2013-03-30 07:25:00,
2013-03-30 02:30:00,56.6,51.5,30.01,ESE,108,2.0,8.0,83,0.00,,---,0.00,VWS V14.01,2013-03-30 07:30:00,
2013-03-30 02:35:00,56.5,51.4,30.02,SE,136,2.0,6.0,83,0.00,,---,0.00,VWS V14.01,2013-03-30 07:35:00,
2013-03-30 02:40:00,56.4,51.6,30.02,ENE,75,4.0,6.0,84,0.00,,---,0.00,VWS V14.01,2013-03-30 07:40:00,
2013-03-30 02:45:00,56.3,51.5,30.02,ENE,70,2.0,6.0,84,0.00,,---,0.00,VWS V14.01,2013-03-30 07:45:00,
2013-03-30 02:50:00,56.2,51.8,30.04,NW,307,4.0,4.0,85,0.00,,---,0.00,VWS V14.01,2013-03-30 07:50:00,
2013-03-30 02:55:00,55.8,52.3,30.06,NW,307,8.0,12.0,88,0.05,,---,0.05,VWS V14.01,2013-03-30 07:55:00,
2013-03-30 03:00:00,55.4,52.5,30.04,NE,56,2.0,12.0,90,0.30,,---,0.30,VWS V14.01,2013-03-30 08:00:00,
2013-03-30 03:05:00,55.0,52.7,30.03,ENE,61,1.0,5.0,92,0.42,,---,0.42,VWS V14.01,2013-03-30 08:05:00,
2013-03-30 03:10:00,54.6,52.3,30.03,NE,41,3.0,7.0,92,0.44,,---,0.44,VWS V14.01,2013-03-30 08:10:00,
2013-03-30 03:15:00,54.4,52.4,30.02,East,98,3.0,9.0,93,0.44,,---,0.44,VWS V14.01,2013-03-30 08:15:00,
2013-03-30 03:20:00,54.3,52.3,30.01,ESE,104,1.0,6.0,93,0.44,,---,0.44,VWS V14.01,2013-03-30 08:20:00,
2013-03-30 03:25:00,54.2,52.2,29.99,ENE,77,3.0,8.0,93,0.44,,---,0.44,VWS V14.01,2013-03-30 08:25:00,
2013-03-30 03:30:00,54.1,52.1,29.97,ESE,110,5.0,8.0,93,0.44,,---,0.44,VWS V14.01,2013-03-30 08:30:00,
2013-03-30 03:35:00,54.2,52.2,29.95,SE,134,7.0,12.0,93,0.44,,---,0.44,VWS V14.01,2013-03-30 08:35:00,
2013-03-30 03:40:00,54.5,52.5,29.95,SE,143,5.0,12.0,93,0.44,,---,0.44,VWS V14.01,2013-03-30 08:40:00,
2013-03-30 03:45:00,54.9,52.9,29.95,SE,134,6.0,12.0,93,0.44,,---,0.44,VWS V14.01,2013-03-30 08:45:00,
2013-03-30 03:50:00,55.2,53.2,29.94,ESE,121,4.0,8.0,93,0.44,,---,0.44,VWS V14.01,2013-03-30 08:50:00,
2013-03-30 03:55:00,55.6,53.6,29.94,SSE,158,3.0,8.0,93,0.44,,---,0.44,VWS V14.01,2013-03-30 08:55:00,
2013-03-30 04:00:00,56.0,53.7,29.94,SSE,167,5.0,8.0,92,0.44,,---,0.44,VWS V14.01,2013-03-30 09:00:00,
2013-03-30 04:05:00,56.2,53.6,29.94,SE,136,5.0,8.0,91,0.12,,---,0.44,VWS V14.01,2013-03-30 09:05:00,
2013-03-30 04:10:00,56.4,53.8,29.95,SSE,153,1.0,8.0,91,0.12,,---,0.44,VWS V14.01,2013-03-30 09:10:00,
2013-03-30 04:15:00,56.5,53.9,29.96,SSE,162,7.0,9.0,91,0.12,,---,0.44,VWS V14.01,2013-03-30 09:15:00,
2013-03-30 04:20:00,56.4,53.5,29.96,South,176,4.0,6.0,90,0.00,,---,0.44,VWS V14.01,2013-03-30 09:20:00,
2013-03-30 04:25:00,56.3,53.4,29.96,SSW,197,4.0,9.0,90,0.00,,---,0.44,VWS V14.01,2013-03-30 09:25:00,
2013-03-30 04:30:00,55.9,53.0,29.96,SW,221,4.0,9.0,90,0.00,,---,0.44,VWS V14.01,2013-03-30 09:30:00,
2013-03-30 04:34:00,55.6,52.4,29.96,SW,218,4.0,10.0,89,0.00,,---,0.44,VWS V14.01,2013-03-30 09:34:00,
2013-03-30 04:39:00,55.4,52.2,29.97,South,174,2.0,10.0,89,0.00,,---,0.44,VWS V14.01,2013-03-30 09:39:00,
2013-03-30 04:44:00,55.1,51.9,29.97,SW,215,8.0,10.0,89,0.00,,---,0.44,VWS V14.01,2013-03-30 09:44:00,
2013-03-30 04:49:00,54.8,51.6,29.97,ESE,113,4.0,8.0,89,0.00,,---,0.44,VWS V14.01,2013-03-30 09:49:00,
2013-03-30 04:54:00,54.5,51.3,29.97,SW,231,1.0,8.0,89,0.00,,---,0.44,VWS V14.01,2013-03-30 09:54:00,
2013-03-30 04:59:00,54.4,51.2,29.97,SE,146,3.0,8.0,89,0.00,,---,0.44,VWS V14.01,2013-03-30 09:59:00,
2013-03-30 05:04:00,54.2,51.0,29.97,South,173,3.0,6.0,89,0.00,,---,0.44,VWS V14.01,2013-03-30 10:04:00,
2013-03-30 05:09:00,54.0,50.8,29.97,SW,231,0.0,6.0,89,0.00,,---,0.44,VWS V14.01,2013-03-30 10:09:00,
2013-03-30 05:14:00,53.9,50.7,29.97,SW,232,0.0,6.0,89,0.00,,---,0.44,VWS V14.01,2013-03-30 10:14:00,
2013-03-30 05:19:00,53.8,50.9,29.97,SSW,205,0.0,1.0,90,0.00,,---,0.44,VWS V14.01,2013-03-30 10:19:00,
2013-03-30 05:24:00,53.6,50.7,29.97,SW,236,0.0,1.0,90,0.00,,---,0.44,VWS V14.01,2013-03-30 10:24:00,
2013-03-30 05:29:00,53.4,50.5,29.97,SW,235,0.0,1.0,90,0.00,,---,0.44,VWS V14.01,2013-03-30 10:29:00,
2013-03-30 05:34:00,53.3,50.5,29.97,WSW,246,0.0,4.0,90,0.00,,---,0.44,VWS V14.01,2013-03-30 10:34:00,
2013-03-30 05:39:00,53.2,50.3,29.98,WSW,240,0.0,4.0,90,0.00,,---,0.44,VWS V14.01,2013-03-30 10:39:00,
2013-03-30 05:44:00,53.2,50.7,29.98,WSW,243,3.0,4.0,91,0.00,,---,0.44,VWS V14.01,2013-03-30 10:44:00,
2013-03-30 05:49:00,53.1,50.2,29.98,SW,223,0.0,4.0,90,0.00,,---,0.44,VWS V14.01,2013-03-30 10:49:00,
2013-03-30 05:54:00,53.1,50.2,29.98,SW,229,2.0,4.0,90,0.00,,---,0.44,VWS V14.01,2013-03-30 10:54:00,
2013-03-30 05:59:00,53.0,50.2,29.98,SW,219,1.0,4.0,90,0.00,,---,0.44,VWS V14.01,2013-03-30 10:59:00,
2013-03-30 06:04:00,52.9,49.8,29.98,SW,229,0.0,1.0,89,0.00,,---,0.44,VWS V14.01,2013-03-30 11:04:00,
2013-03-30 06:08:00,52.9,49.8,29.98,SW,229,0.0,1.0,89,0.00,,---,0.44,VWS V14.01,2013-03-30 11:08:00,
2013-03-30 06:13:00,52.9,49.8,29.97,SW,229,0.0,1.0,89,0.00,,---,0.44,VWS V14.01,2013-03-30 11:13:00,
2013-03-30 06:18:00,52.9,49.8,29.98,SW,229,0.0,0.0,89,0.00,,---,0.44,VWS V14.01,2013-03-30 11:18:00,
2013-03-30 06:23:00,52.9,49.8,29.98,SW,229,0.0,0.0,89,0.00,,---,0.44,VWS V14.01,2013-03-30 11:23:00,
2013-03-30 06:28:00,52.9,49.8,29.98,SW,229,0.0,0.0,89,0.00,,---,0.44,VWS V14.01,2013-03-30 11:28:00,
2013-03-30 06:33:00,52.9,49.8,29.98,SW,229,0.0,0.0,89,0.00,,---,0.44,VWS V14.01,2013-03-30 11:33:00,
2013-03-30 06:38:00,52.9,49.8,29.98,SW,229,0.0,0.0,89,0.00,,---,0.44,VWS V14.01,2013-03-30 11:38:00,
2013-03-30 06:43:00,52.9,49.8,29.98,SW,229,0.0,0.0,89,0.00,,---,0.44,VWS V14.01,2013-03-30 11:43:00,
2013-03-30 06:48:00,52.9,49.8,29.98,SW,229,0.0,0.0,89,0.00,,---,0.44,VWS V14.01,2013-03-30 11:48:00,
2013-03-30 06:53:00,52.9,49.8,29.98,SW,229,0.0,0.0,89,0.00,,---,0.44,VWS V14.01,2013-03-30 11:53:00,
2013-03-30 06:58:00,52.9,49.8,29.98,SW,229,0.0,0.0,89,0.00,,---,0.44,VWS V14.01,2013-03-30 11:58:00,
2013-03-30 07:03:00,52.9,49.8,29.99,SW,229,0.0,0.0,89,0.00,,---,0.44,VWS V14.01,2013-03-30 12:03:00,
2013-03-30 07:08:00,52.9,49.8,29.98,SW,229,0.0,0.0,89,0.00,,---,0.44,VWS V14.01,2013-03-30 12:08:00,
2013-03-30 07:13:00,52.9,49.8,29.99,SW,229,0.0,0.0,89,0.00,,---,0.44,VWS V14.01,2013-03-30 12:13:00,
2013-03-30 07:18:00,52.9,49.8,29.98,SW,229,0.0,0.0,89,0.00,,---,0.44,VWS V14.01,2013-03-30 12:18:00,
2013-03-30 07:23:00,52.9,49.8,29.98,SW,229,0.0,0.0,89,0.00,,---,0.44,VWS V14.01,2013-03-30 12:23:00,
2013-03-30 07:28:00,52.9,49.8,29.98,SW,229,0.0,0.0,89,0.00,,---,0.44,VWS V14.01,2013-03-30 12:28:00,
2013-03-30 07:33:00,52.9,49.8,29.98,SW,229,0.0,0.0,89,0.00,,---,0.44,VWS V14.01,2013-03-30 12:33:00,
2013-03-30 07:38:00,52.9,49.8,29.98,SW,229,0.0,0.0,89,0.00,,---,0.44,VWS V14.01,2013-03-30 12:38:00,
2013-03-30 07:43:00,52.9,49.8,29.98,SW,229,0.0,0.0,89,0.00,,---,0.44,VWS V14.01,2013-03-30 12:43:00,
2013-03-30 07:48:00,52.9,49.8,29.98,SW,229,0.0,0.0,89,0.00,,---,0.44,VWS V14.01,2013-03-30 12:48:00,
2013-03-30 07:53:00,52.9,49.8,29.98,SW,229,0.0,0.0,89,0.00,,---,0.44,VWS V14.01,2013-03-30 12:53:00,
2013-03-30 07:58:00,52.9,49.8,29.98,SW,229,0.0,0.0,89,0.00,,---,0.44,VWS V14.01,2013-03-30 12:58:00,
2013-03-30 08:03:00,52.9,49.8,29.98,SW,229,0.0,0.0,89,0.00,,---,0.44,VWS V14.01,2013-03-30 13:03:00,
2013-03-30 08:08:00,52.9,49.8,29.98,SW,229,0.0,0.0,89,0.00,,---,0.44,VWS V14.01,2013-03-30 13:08:00,
2013-03-30 08:13:00,51.7,49.5,29.98,SE,145,0.0,1.0,92,0.00,,---,0.44,VWS V14.01,2013-03-30 13:13:00,
2013-03-30 08:18:00,51.8,49.5,29.98,SE,146,0.0,0.0,92,0.00,,---,0.44,VWS V14.01,2013-03-30 13:18:00,
2013-03-30 08:23:00,52.2,50.0,29.97,SSW,208,0.0,4.0,92,0.00,,---,0.44,VWS V14.01,2013-03-30 13:23:00,
2013-03-30 08:28:00,52.8,50.2,29.97,SW,229,0.0,4.0,91,0.00,,---,0.44,VWS V14.01,2013-03-30 13:28:00,
2013-03-30 08:33:00,53.3,50.5,29.97,SW,229,1.0,4.0,90,0.00,,---,0.44,VWS V14.01,2013-03-30 13:33:00,
2013-03-30 08:38:00,53.8,50.6,29.97,SW,226,2.0,4.0,89,0.00,,---,0.44,VWS V14.01,2013-03-30 13:38:00,
2013-03-30 08:43:00,54.3,50.8,29.97,South,183,0.0,4.0,88,0.00,,---,0.44,VWS V14.01,2013-03-30 13:43:00,
2013-03-30 08:48:00,54.8,51.0,29.96,SW,215,0.0,1.0,87,0.00,,---,0.44,VWS V14.01,2013-03-30 13:48:00,
2013-03-30 08:53:00,55.0,50.9,29.96,SW,228,7.0,8.0,86,0.00,,---,0.44,VWS V14.01,2013-03-30 13:53:00,
2013-03-30 08:58:00,55.4,51.3,29.96,SW,225,0.0,8.0,86,0.00,,---,0.44,VWS V14.01,2013-03-30 13:58:00,
2013-03-30 09:03:00,55.8,51.7,29.96,SW,233,0.0,1.0,86,0.00,,---,0.44,VWS V14.01,2013-03-30 14:03:00,
2013-03-30 09:08:00,56.1,52.0,29.95,SSW,208,0.0,1.0,86,0.00,,---,0.44,VWS V14.01,2013-03-30 14:08:00,
2013-03-30 09:13:00,56.4,52.0,29.95,SW,219,3.0,7.0,85,0.00,,---,0.44,VWS V14.01,2013-03-30 14:13:00,
2013-03-30 09:18:00,56.7,52.2,29.95,SW,218,7.0,10.0,85,0.00,,---,0.44,VWS V14.01,2013-03-30 14:18:00,
2013-03-30 09:23:00,56.8,52.3,29.95,South,184,3.0,10.0,85,0.00,,---,0.44,VWS V14.01,2013-03-30 14:23:00,
2013-03-30 09:28:00,57.1,52.6,29.95,SSE,166,2.0,10.0,85,0.00,,---,0.44,VWS V14.01,2013-03-30 14:28:00,
2013-03-30 09:33:00,57.6,52.8,29.95,SW,225,1.0,7.0,84,0.00,,---,0.44,VWS V14.01,2013-03-30 14:33:00,
2013-03-30 09:38:00,57.7,53.2,29.95,WSW,257,5.0,8.0,85,0.00,,---,0.44,VWS V14.01,2013-03-30 14:38:00,
2013-03-30 09:43:00,58.1,53.6,29.95,South,188,3.0,8.0,85,0.00,,---,0.44,VWS V14.01,2013-03-30 14:43:00,
2013-03-30 09:48:00,58.4,53.9,29.96,SW,218,3.0,9.0,85,0.00,,---,0.44,VWS V14.01,2013-03-30 14:48:00,
2013-03-30 09:53:00,58.6,53.8,29.96,South,176,3.0,9.0,84,0.00,,---,0.44,VWS V14.01,2013-03-30 14:53:00,
2013-03-30 09:58:00,58.8,54.3,29.97,West,263,2.0,9.0,85,0.00,,---,0.44,VWS V14.01,2013-03-30 14:58:00,
2013-03-30 10:03:00,58.8,54.3,29.97,SW,229,5.0,9.0,85,0.00,,---,0.44,VWS V14.01,2013-03-30 15:03:00,
2013-03-30 10:08:00,58.9,54.4,29.97,SW,225,2.0,9.0,85,0.00,,---,0.44,VWS V14.01,2013-03-30 15:08:00,
2013-03-30 10:13:00,59.0,54.5,29.97,South,174,0.0,9.0,85,0.00,,---,0.44,VWS V14.01,2013-03-30 15:13:00,
2013-03-30 10:18:00,59.1,54.9,29.97,WSW,247,0.0,1.0,86,0.00,,---,0.44,VWS V14.01,2013-03-30 15:18:00,
2013-03-30 10:23:00,59.4,55.2,29.97,WSW,248,0.0,1.0,86,0.00,,---,0.44,VWS V14.01,2013-03-30 15:23:00,
2013-03-30 10:28:00,59.8,55.9,29.96,WSW,247,0.0,1.0,87,0.00,,---,0.44,VWS V14.01,2013-03-30 15:28:00,
2013-03-30 10:33:00,60.2,56.3,29.96,SW,224,0.0,1.0,87,0.00,,---,0.44,VWS V14.01,2013-03-30 15:33:00,
2013-03-30 10:38:00,60.6,56.4,29.97,SW,224,0.0,1.0,86,0.00,,---,0.44,VWS V14.01,2013-03-30 15:38:00,
2013-03-30 10:43:00,60.8,56.6,29.96,SW,233,4.0,7.0,86,0.00,,---,0.44,VWS V14.01,2013-03-30 15:43:00,
2013-03-30 10:48:00,61.1,56.9,29.96,SW,232,0.0,1.0,86,0.00,,---,0.44,VWS V14.01,2013-03-30 15:48:00,
2013-03-30 10:53:00,61.5,57.3,29.96,West,270,2.0,7.0,86,0.00,,---,0.44,VWS V14.01,2013-03-30 15:53:00,
2013-03-30 10:58:00,61.9,57.3,29.96,SSW,194,3.0,8.0,85,0.00,,---,0.44,VWS V14.01,2013-03-30 15:58:00,
2013-03-30 11:03:00,62.0,57.5,29.96,SSW,212,4.0,9.0,85,0.00,,---,0.44,VWS V14.01,2013-03-30 16:03:00,
2013-03-30 11:08:00,62.1,57.2,29.96,SSW,205,0.0,9.0,84,0.00,,---,0.44,VWS V14.01,2013-03-30 16:08:00,
2013-03-30 11:13:00,62.2,57.0,29.96,West,267,3.0,9.0,83,0.00,,---,0.44,VWS V14.01,2013-03-30 16:13:00,
2013-03-30 11:18:00,62.3,57.1,29.96,West,265,4.0,7.0,83,0.00,,---,0.44,VWS V14.01,2013-03-30 16:18:00,
2013-03-30 11:23:00,62.2,56.6,29.96,West,264,1.0,7.0,82,0.00,,---,0.44,VWS V14.01,2013-03-30 16:23:00,
2013-03-30 11:28:00,62.1,56.5,29.96,WSW,246,1.0,7.0,82,0.00,,---,0.44,VWS V14.01,2013-03-30 16:28:00,
2013-03-30 11:33:00,62.3,57.1,29.96,SW,236,0.0,1.0,83,0.00,,---,0.44,VWS V14.01,2013-03-30 16:33:00,
2013-03-30 11:38:00,62.4,56.8,29.96,SW,225,0.0,1.0,82,0.00,,---,0.44,VWS V14.01,2013-03-30 16:38:00,
2013-03-30 11:43:00,62.4,56.8,29.96,WNW,297,0.0,1.0,82,0.00,,---,0.44,VWS V14.01,2013-03-30 16:43:00,
2013-03-30 11:48:00,62.6,57.0,29.96,West,264,1.0,2.0,82,0.00,,---,0.44,VWS V14.01,2013-03-30 16:48:00,
2013-03-30 11:53:00,62.8,56.9,29.96,WNW,283,0.0,2.0,81,0.00,,---,0.44,VWS V14.01,2013-03-30 16:53:00,
2013-03-30 11:58:00,62.8,56.9,29.96,WNW,289,0.0,2.0,81,0.00,,---,0.44,VWS V14.01,2013-03-30 16:58:00,
2013-03-30 12:03:00,63.0,57.1,29.96,WNW,291,0.0,3.0,81,0.00,,---,0.44,VWS V14.01,2013-03-30 17:03:00,
2013-03-30 12:08:00,63.4,57.1,29.96,SW,235,2.0,4.0,80,0.00,,---,0.44,VWS V14.01,2013-03-30 17:08:00,
2013-03-30 12:13:00,63.7,57.1,29.96,NW,308,0.0,4.0,79,0.00,,---,0.44,VWS V14.01,2013-03-30 17:13:00,
2013-03-30 12:18:00,63.6,57.0,29.96,NNW,331,0.0,0.0,79,0.00,,---,0.44,VWS V14.01,2013-03-30 17:18:00,
2013-03-30 12:23:00,63.6,56.6,29.96,NW,311,2.0,7.0,78,0.00,,---,0.44,VWS V14.01,2013-03-30 17:23:00,
2013-03-30 12:28:00,63.7,56.7,29.96,NW,319,0.0,7.0,78,0.00,,---,0.44,VWS V14.01,2013-03-30 17:28:00,
2013-03-30 12:33:00,63.9,56.9,29.96,West,270,0.0,1.0,78,0.00,,---,0.44,VWS V14.01,2013-03-30 17:33:00,
2013-03-30 12:38:00,64.0,56.7,29.96,North,6,0.0,1.0,77,0.00,,---,0.44,VWS V14.01,2013-03-30 17:38:00,
2013-03-30 12:43:00,64.6,57.2,29.96,WNW,302,0.0,1.0,77,0.00,,---,0.44,VWS V14.01,2013-03-30 17:43:00,
2013-03-30 12:48:00,64.9,56.8,29.96,WNW,298,0.0,1.0,75,0.00,,---,0.44,VWS V14.01,2013-03-30 17:48:00,
2013-03-30 12:53:00,65.2,57.1,29.96,NW,316,0.0,2.0,75,0.00,,---,0.44,VWS V14.01,2013-03-30 17:53:00,
2013-03-30 12:58:00,65.4,57.3,29.96,NE,44,3.0,4.0,75,0.00,,---,0.44,VWS V14.01,2013-03-30 17:58:00,
2013-03-30 13:03:00,65.5,57.4,29.96,NW,308,0.0,3.0,75,0.00,,---,0.44,VWS V14.01,2013-03-30 18:03:00,
2013-03-30 13:08:00,65.5,57.0,29.95,NW,319,0.0,5.0,74,0.00,,---,0.44,VWS V14.01,2013-03-30 18:08:00,
2013-03-30 13:13:00,65.6,57.5,29.95,NW,305,3.0,5.0,75,0.00,,---,0.44,VWS V14.01,2013-03-30 18:13:00,
2013-03-30 13:18:00,65.5,57.4,29.95,NNW,330,3.0,8.0,75,0.00,,---,0.44,VWS V14.01,2013-03-30 18:18:00,
2013-03-30 13:23:00,65.5,57.4,29.95,NW,304,0.0,8.0,75,0.00,,---,0.44,VWS V14.01,2013-03-30 18:23:00,
2013-03-30 13:28:00,65.9,57.8,29.95,NNW,348,3.0,8.0,75,0.00,,---,0.44,VWS V14.01,2013-03-30 18:28:00,
2013-03-30 13:33:00,66.0,56.7,29.95,NW,322,2.0,5.0,72,0.00,,---,0.44,VWS V14.01,2013-03-30 18:33:00,
2013-03-30 13:38:00,66.2,57.3,29.95,North,360,2.0,5.0,73,0.00,,---,0.44,VWS V14.01,2013-03-30 18:38:00,
2013-03-30 13:43:00,66.1,56.8,29.95,NE,39,2.0,7.0,72,0.00,,---,0.44,VWS V14.01,2013-03-30 18:43:00,
2013-03-30 13:48:00,66.1,57.2,29.95,NNW,339,3.0,5.0,73,0.00,,---,0.44,VWS V14.01,2013-03-30 18:48:00,
2013-03-30 13:53:00,66.4,57.5,29.95,ESE,107,2.0,5.0,73,0.00,,---,0.44,VWS V14.01,2013-03-30 18:53:00,
2013-03-30 13:58:00,66.6,56.9,29.95,NE,42,1.0,5.0,71,0.00,,---,0.44,VWS V14.01,2013-03-30 18:58:00,
2013-03-30 14:03:00,66.5,57.2,29.94,East,87,2.0,3.0,72,0.00,,---,0.44,VWS V14.01,2013-03-30 19:03:00,
2013-03-30 14:08:00,66.9,56.4,29.94,ENE,73,2.0,4.0,69,0.00,,---,0.44,VWS V14.01,2013-03-30 19:08:00,
2013-03-30 14:13:00,67.5,56.2,29.94,SE,139,0.0,5.0,67,0.00,,---,0.44,VWS V14.01,2013-03-30 19:13:00,
2013-03-30 14:18:00,68.2,56.0,29.94,East,79,2.0,4.0,65,0.00,,---,0.44,VWS V14.01,2013-03-30 19:18:00,
2013-03-30 14:23:00,68.6,56.8,29.93,ENE,60,1.0,4.0,66,0.00,,---,0.44,VWS V14.01,2013-03-30 19:23:00,
2013-03-30 14:27:00,69.0,56.8,29.93,ESE,108,2.0,4.0,65,0.00,,---,0.44,VWS V14.01,2013-03-30 19:27:00,
2013-03-30 14:33:00,69.4,57.6,29.93,SSW,208,1.0,1.0,66,0.00,,---,0.44,VWS V14.01,2013-03-30 19:33:00,
2013-03-30 14:38:00,70.4,57.2,29.93,SE,131,0.0,3.0,63,0.00,,---,0.44,VWS V14.01,2013-03-30 19:38:00,
2013-03-30 14:43:00,70.8,57.6,29.93,ENE,73,0.0,3.0,63,0.00,,---,0.44,VWS V14.01,2013-03-30 19:43:00,
2013-03-30 14:48:00,70.2,57.5,29.93,NNE,33,1.0,5.0,64,0.00,,---,0.44,VWS V14.01,2013-03-30 19:48:00,
2013-03-30 14:53:00,69.7,57.0,29.93,West,264,0.0,5.0,64,0.00,,---,0.44,VWS V14.01,2013-03-30 19:53:00,
2013-03-30 14:58:00,70.4,57.7,29.92,SW,214,0.0,5.0,64,0.00,,---,0.44,VWS V14.01,2013-03-30 19:58:00,
2013-03-30 15:03:00,71.2,58.0,29.92,East,101,0.0,3.0,63,0.00,,---,0.44,VWS V14.01,2013-03-30 20:03:00,
2013-03-30 15:08:00,71.3,57.2,29.92,ENE,58,2.0,3.0,61,0.00,,---,0.44,VWS V14.01,2013-03-30 20:08:00,
2013-03-30 15:13:00,70.9,57.2,29.92,North,353,1.0,5.0,62,0.00,,---,0.44,VWS V14.01,2013-03-30 20:13:00,
2013-03-30 15:18:00,71.0,57.3,29.92,ENE,61,4.0,4.0,62,0.00,,---,0.44,VWS V14.01,2013-03-30 20:18:00,
2013-03-30 15:23:00,70.6,55.6,29.92,ENE,74,1.0,7.0,59,0.00,,---,0.44,VWS V14.01,2013-03-30 20:23:00,
2013-03-30 15:28:00,70.9,57.2,29.91,NNW,342,2.0,7.0,62,0.00,,---,0.44,VWS V14.01,2013-03-30 20:28:00,
2013-03-30 15:32:00,71.5,54.5,29.91,NE,53,7.0,7.0,55,0.00,,---,0.44,VWS V14.01,2013-03-30 20:32:00,
2013-03-30 15:37:00,71.5,54.5,29.91,NE,56,3.0,10.0,55,0.00,,---,0.44,VWS V14.01,2013-03-30 20:37:00,
2013-03-30 15:42:00,71.8,55.8,29.91,WNW,300,4.0,10.0,57,0.00,,---,0.44,VWS V14.01,2013-03-30 20:42:00,
2013-03-30 15:47:00,71.7,54.2,29.91,North,355,1.0,6.0,54,0.00,,---,0.44,VWS V14.01,2013-03-30 20:47:00,
2013-03-30 15:52:00,71.5,53.5,29.91,East,83,5.0,7.0,53,0.00,,---,0.44,VWS V14.01,2013-03-30 20:52:00,
2013-03-30 15:57:00,71.7,54.7,29.91,ENE,73,6.0,11.0,55,0.00,,---,0.44,VWS V14.01,2013-03-30 20:57:00,
2013-03-30 16:02:00,71.3,54.3,29.91,NE,49,7.0,9.0,55,0.00,,---,0.44,VWS V14.01,2013-03-30 21:02:00,
2013-03-30 16:08:00,71.2,53.7,29.91,ENE,60,8.0,11.0,54,0.00,,---,0.44,VWS V14.01,2013-03-30 21:08:00,
2013-03-30 16:13:00,71.3,53.8,29.91,NE,53,0.0,11.0,54,0.00,,---,0.44,VWS V14.01,2013-03-30 21:13:00,
2013-03-30 16:18:00,71.4,54.4,29.91,NNE,23,5.0,9.0,55,0.00,,---,0.44,VWS V14.01,2013-03-30 21:18:00,
2013-03-30 16:23:00,71.4,53.4,29.91,NW,310,1.0,9.0,53,0.00,,---,0.44,VWS V14.01,2013-03-30 21:23:00,
2013-03-30 16:28:00,71.6,53.6,29.91,NE,55,2.0,9.0,53,0.00,,---,0.44,VWS V14.01,2013-03-30 21:28:00,
2013-03-30 16:33:00,71.3,53.8,29.91,ENE,62,3.0,11.0,54,0.00,,---,0.44,VWS V14.01,2013-03-30 21:33:00,
2013-03-30 16:38:00,70.9,54.0,29.91,NE,53,3.0,11.0,55,0.00,,---,0.44,VWS V14.01,2013-03-30 21:38:00,
2013-03-30 16:43:00,71.5,54.0,29.91,ENE,60,2.0,11.0,54,0.00,,---,0.44,VWS V14.01,2013-03-30 21:43:00,
2013-03-30 16:48:00,71.8,53.8,29.91,West,270,5.0,8.0,53,0.00,,---,0.44,VWS V14.01,2013-03-30 21:48:00,
2013-03-30 16:53:00,71.7,54.2,29.90,NW,325,5.0,10.0,54,0.00,,---,0.44,VWS V14.01,2013-03-30 21:53:00,
2013-03-30 16:58:00,71.6,53.6,29.90,NW,319,0.0,12.0,53,0.00,,---,0.44,VWS V14.01,2013-03-30 21:58:00,
2013-03-30 17:03:00,72.0,52.9,29.91,North,360,5.0,8.0,51,0.00,,---,0.44,VWS V14.01,2013-03-30 22:03:00,
2013-03-30 17:08:00,71.8,53.2,29.91,NW,316,6.0,9.0,52,0.00,,---,0.44,VWS V14.01,2013-03-30 22:08:00,
2013-03-30 17:13:00,71.2,52.2,29.91,NW,311,2.0,11.0,51,0.00,,---,0.44,VWS V14.01,2013-03-30 22:13:00,
2013-03-30 17:18:00,71.2,52.7,29.91,NW,314,4.0,6.0,52,0.00,,---,0.44,VWS V14.01,2013-03-30 22:18:00,
2013-03-30 17:23:00,71.1,53.6,29.91,NW,321,3.0,10.0,54,0.00,,---,0.44,VWS V14.01,2013-03-30 22:23:00,
2013-03-30 17:28:00,71.2,51.6,29.91,West,274,1.0,10.0,50,0.00,,---,0.44,VWS V14.01,2013-03-30 22:28:00,
2013-03-30 17:33:00,71.3,52.3,29.91,NNW,328,6.0,6.0,51,0.00,,---,0.44,VWS V14.01,2013-03-30 22:33:00,
2013-03-30 17:38:00,71.2,52.2,29.91,NNW,347,2.0,10.0,51,0.00,,---,0.44,VWS V14.01,2013-03-30 22:38:00,
2013-03-30 17:43:00,71.1,52.1,29.91,NW,312,4.0,10.0,51,0.00,,---,0.44,VWS V14.01,2013-03-30 22:43:00,
2013-03-30 17:48:00,71.3,53.3,29.91,NW,312,2.0,6.0,53,0.00,,---,0.44,VWS V14.01,2013-03-30 22:48:00,
2013-03-30 17:53:00,71.5,53.0,29.91,NNE,17,2.0,7.0,52,0.00,,---,0.44,VWS V14.01,2013-03-30 22:53:00,
2013-03-30 17:58:00,71.2,51.1,29.91,NE,45,6.0,10.0,49,0.00,,---,0.44,VWS V14.01,2013-03-30 22:58:00,
2013-03-30 18:03:00,70.9,52.4,29.91,NW,305,0.0,5.0,52,0.00,,---,0.44,VWS V14.01,2013-03-30 23:03:00,
2013-03-30 18:08:00,71.2,52.2,29.92,ENE,76,2.0,7.0,51,0.00,,---,0.44,VWS V14.01,2013-03-30 23:08:00,
2013-03-30 18:13:00,71.1,51.5,29.92,NW,309,3.0,7.0,50,0.00,,---,0.44,VWS V14.01,2013-03-30 23:13:00,
2013-03-30 18:18:00,71.0,52.0,29.92,NE,35,0.0,8.0,51,0.00,,---,0.44,VWS V14.01,2013-03-30 23:18:00,
2013-03-30 18:23:00,70.9,50.8,29.92,NE,55,1.0,8.0,49,0.00,,---,0.44,VWS V14.01,2013-03-30 23:23:00,
2013-03-30 18:28:00,70.9,51.9,29.92,North,360,4.0,8.0,51,0.00,,---,0.44,VWS V14.01,2013-03-30 23:28:00,
2013-03-30 18:33:00,70.5,52.0,29.92,ENE,58,4.0,7.0,52,0.00,,---,0.44,VWS V14.01,2013-03-30 23:33:00,
2013-03-30 18:38:00,70.4,52.5,29.92,NE,37,3.0,7.0,53,0.00,,---,0.44,VWS V14.01,2013-03-30 23:38:00,
2013-03-30 18:43:00,70.2,52.3,29.92,NE,49,2.0,8.0,53,0.00,,---,0.44,VWS V14.01,2013-03-30 23:43:00,
2013-03-30 18:48:00,70.1,52.2,29.92,NNE,30,3.0,6.0,53,0.00,,---,0.44,VWS V14.01,2013-03-30 23:48:00,
2013-03-30 18:53:00,69.8,51.9,29.92,East,79,2.0,6.0,53,0.00,,---,0.44,VWS V14.01,2013-03-30 23:53:00,
2013-03-30 18:58:00,69.8,51.9,29.92,NNE,12,0.0,6.0,53,0.00,,---,0.44,VWS V14.01,2013-03-30 23:58:00,
2013-03-30 19:03:00,69.7,51.3,29.92,NNW,345,1.0,6.0,52,0.00,,---,0.44,VWS V14.01,2013-03-31 00:03:00,
2013-03-30 19:08:00,69.5,51.1,29.92,WNW,302,0.0,6.0,52,0.00,,---,0.44,VWS V14.01,2013-03-31 00:08:00,
2013-03-30 19:12:00,69.2,51.9,29.92,NE,50,3.0,8.0,54,0.00,,---,0.44,VWS V14.01,2013-03-31 00:12:00,
2013-03-30 19:18:00,68.9,51.6,29.92,NNE,23,5.0,8.0,54,0.00,,---,0.44,VWS V14.01,2013-03-31 00:18:00,
2013-03-30 19:23:00,68.6,51.8,29.93,NE,50,1.0,8.0,55,0.00,,---,0.44,VWS V14.01,2013-03-31 00:23:00,
2013-03-30 19:28:00,68.3,51.5,29.93,NE,39,1.0,8.0,55,0.00,,---,0.44,VWS V14.01,2013-03-31 00:28:00,
2013-03-30 19:33:00,68.0,52.2,29.93,NNW,339,3.0,3.0,57,0.00,,---,0.44,VWS V14.01,2013-03-31 00:33:00,
2013-03-30 19:38:00,67.7,51.9,29.93,ENE,74,0.0,3.0,57,0.00,,---,0.44,VWS V14.01,2013-03-31 00:38:00,
2013-03-30 19:43:00,67.3,51.6,29.93,ENE,71,0.0,3.0,57,0.00,,---,0.44,VWS V14.01,2013-03-31 00:43:00,
2013-03-30 19:48:00,66.9,51.7,29.93,ENE,73,1.0,2.0,58,0.00,,---,0.44,VWS V14.01,2013-03-31 00:48:00,
2013-03-30 19:53:00,66.7,51.5,29.93,ENE,58,0.0,4.0,58,0.00,,---,0.44,VWS V14.01,2013-03-31 00:53:00,
2013-03-30 19:58:00,66.4,51.7,29.93,ENE,68,1.0,4.0,59,0.00,,---,0.44,VWS V14.01,2013-03-31 00:58:00,
2013-03-30 20:03:00,66.0,51.7,29.93,ENE,63,2.0,2.0,60,0.00,,---,0.44,VWS V14.01,2013-03-31 01:03:00,
2013-03-30 20:08:00,65.6,51.8,29.93,ENE,72,2.0,3.0,61,0.00,,---,0.44,VWS V14.01,2013-03-31 01:08:00,
2013-03-30 20:13:00,65.3,51.5,29.93,East,86,1.0,3.0,61,0.00,,---,0.44,VWS V14.01,2013-03-31 01:13:00,
2013-03-30 20:18:00,65.1,51.3,29.94,East,85,0.0,0.0,61,0.00,,---,0.44,VWS V14.01,2013-03-31 01:18:00,
2013-03-30 20:23:00,64.8,51.5,29.94,East,84,0.0,0.0,62,0.00,,---,0.44,VWS V14.01,2013-03-31 01:23:00,
2013-03-30 20:28:00,64.5,51.6,29.94,East,85,0.0,0.0,63,0.00,,---,0.44,VWS V14.01,2013-03-31 01:28:00,
2013-03-30 20:33:00,64.1,51.7,29.94,East,84,0.0,0.0,64,0.00,,---,0.44,VWS V14.01,2013-03-31 01:33:00,
2013-03-30 20:38:00,63.9,51.5,29.94,East,85,0.0,0.0,64,0.00,,---,0.44,VWS V14.01,2013-03-31 01:38:00,
2013-03-30 20:43:00,63.8,51.8,29.94,East,84,0.0,1.0,65,0.00,,---,0.44,VWS V14.01,2013-03-31 01:43:00,
2013-03-30 20:47:00,63.7,51.7,29.94,East,84,0.0,1.0,65,0.00,,---,0.44,VWS V14.01,2013-03-31 01:47:00,
2013-03-30 20:52:00,63.4,51.9,29.95,East,84,0.0,1.0,66,0.00,,---,0.44,VWS V14.01,2013-03-31 01:52:00,
2013-03-30 20:57:00,62.9,51.8,29.95,NE,44,0.0,1.0,67,0.00,,---,0.44,VWS V14.01,2013-03-31 01:57:00,
2013-03-30 21:02:00,62.6,51.9,29.95,NNE,27,0.0,0.0,68,0.00,,---,0.44,VWS V14.01,2013-03-31 02:02:00,
2013-03-30 21:07:00,62.3,51.6,29.95,North,354,0.0,0.0,68,0.00,,---,0.44,VWS V14.01,2013-03-31 02:07:00,
2013-03-30 21:12:00,61.9,51.6,29.96,North,354,0.0,0.0,69,0.00,,---,0.44,VWS V14.01,2013-03-31 02:12:00,
2013-03-30 21:17:00,61.4,51.5,29.96,NNW,328,0.0,0.0,70,0.00,,---,0.44,VWS V14.01,2013-03-31 02:17:00,
2013-03-30 21:22:00,61.3,50.3,29.95,ENE,63,4.0,6.0,67,0.00,,---,0.44,VWS V14.01,2013-03-31 02:22:00,
2013-03-30 21:27:00,61.5,48.8,29.96,ESE,103,5.0,9.0,63,0.00,,---,0.44,VWS V14.01,2013-03-31 02:27:00,
2013-03-30 21:32:00,61.5,47.5,29.96,ENE,62,3.0,10.0,60,0.00,,---,0.44,VWS V14.01,2013-03-31 02:32:00,
2013-03-30 21:37:00,61.6,46.2,29.96,NE,48,6.0,13.0,57,0.00,,---,0.44,VWS V14.01,2013-03-31 02:37:00,
2013-03-30 21:42:00,61.5,45.2,29.96,NNW,347,4.0,13.0,55,0.00,,---,0.44,VWS V14.01,2013-03-31 02:42:00,
2013-03-30 21:47:00,61.3,45.0,29.97,ENE,59,7.0,10.0,55,0.00,,---,0.44,VWS V14.01,2013-03-31 02:47:00,
2013-03-30 21:52:00,61.0,44.7,29.97,NE,48,4.0,11.0,55,0.00,,---,0.44,VWS V14.01,2013-03-31 02:52:00,
2013-03-30 21:57:00,60.7,44.5,29.97,East,86,3.0,11.0,55,0.00,,---,0.44,VWS V14.01,2013-03-31 02:57:00,
2013-03-30 22:02:00,60.0,44.7,29.97,NE,55,3.0,5.0,57,0.00,,---,0.44,VWS V14.01,2013-03-31 03:02:00,
2013-03-30 22:07:00,59.6,44.4,29.97,NE,44,3.0,6.0,57,0.00,,---,0.44,VWS V14.01,2013-03-31 03:07:00,
2013-03-30 22:12:00,59.5,44.3,29.98,North,5,6.0,9.0,57,0.00,,---,0.44,VWS V14.01,2013-03-31 03:12:00,
2013-03-30 22:17:00,59.5,43.8,29.99,NE,44,2.0,6.0,56,0.00,,---,0.44,VWS V14.01,2013-03-31 03:17:00,
2013-03-30 22:22:00,59.4,44.2,29.99,NE,44,2.0,7.0,57,0.00,,---,0.44,VWS V14.01,2013-03-31 03:22:00,
2013-03-30 22:27:00,59.1,43.9,30.00,NE,50,0.0,7.0,57,0.00,,---,0.44,VWS V14.01,2013-03-31 03:27:00,
2013-03-30 22:32:00,58.8,44.1,30.00,North,360,1.0,1.0,58,0.00,,---,0.44,VWS V14.01,2013-03-31 03:32:00,
2013-03-30 22:37:00,58.6,43.9,30.01,ENE,57,0.0,2.0,58,0.00,,---,0.44,VWS V14.01,2013-03-31 03:37:00,
2013-03-30 22:42:00,58.4,44.1,30.01,ENE,58,1.0,2.0,59,0.00,,---,0.44,VWS V14.01,2013-03-31 03:42:00,
2013-03-30 22:47:00,58.3,44.0,30.00,NE,46,1.0,2.0,59,0.00,,---,0.44,VWS V14.01,2013-03-31 03:47:00,
2013-03-30 22:52:00,58.2,44.0,30.01,NNW,342,0.0,2.0,59,0.00,,---,0.44,VWS V14.01,2013-03-31 03:52:00,
2013-03-30 22:57:00,58.0,43.8,30.01,NNE,27,0.0,3.0,59,0.00,,---,0.44,VWS V14.01,2013-03-31 03:57:00,
2013-03-30 23:00:00,58.0,43.8,30.01,NNE,12,1.0,3.0,59,0.00,,---,0.44,VWS V14.01,2013-03-31 04:00:00,
2013-03-30 23:05:00,57.9,43.7,30.01,North,353,1.0,5.0,59,0.00,,---,0.44,VWS V14.01,2013-03-31 04:05:00,
2013-03-30 23:10:00,57.8,44.0,30.01,North,8,0.0,5.0,60,0.00,,---,0.44,VWS V14.01,2013-03-31 04:10:00,
2013-03-30 23:15:00,57.7,43.9,30.01,NW,314,1.0,5.0,60,0.00,,---,0.44,VWS V14.01,2013-03-31 04:15:00,
2013-03-30 23:20:00,57.3,44.4,30.02,NW,318,1.0,3.0,62,0.00,,---,0.44,VWS V14.01,2013-03-31 04:20:00,
2013-03-30 23:25:00,56.9,44.5,30.02,NW,317,1.0,3.0,63,0.00,,---,0.44,VWS V14.01,2013-03-31 04:25:00,
2013-03-30 23:30:00,56.6,43.8,30.03,NW,310,3.0,5.0,62,0.00,,---,0.44,VWS V14.01,2013-03-31 04:30:00,
2013-03-30 23:35:00,56.5,44.1,30.04,NW,316,4.0,8.0,63,0.00,,---,0.44,VWS V14.01,2013-03-31 04:35:00,
2013-03-30 23:40:00,56.1,44.5,30.05,West,270,5.0,9.0,65,0.00,,---,0.44,VWS V14.01,2013-03-31 04:40:00,
2013-03-30 23:45:00,55.7,44.9,30.05,ENE,73,5.0,9.0,67,0.00,,---,0.44,VWS V14.01,2013-03-31 04:45:00,
2013-03-30 23:50:00,55.5,44.3,30.05,WNW,291,3.0,9.0,66,0.00,,---,0.44,VWS V14.01,2013-03-31 04:50:00,
2013-03-30 23:55:00,55.5,44.3,30.06,NNE,25,5.0,13.0,66,0.00,,---,0.44,VWS V14.01,2013-03-31 04:55:00,